{"data":{"norad_id":54644,"epoch":"2026-09-19T16:25:36.364224Z","epoch_age_seconds":92380,"freshness":"FRESH","line1":"1 54644U 22166C   26262.68444866  .00000015  00000+0  38109-5 0  9995","line2":"2 54644  87.9285 225.1665 0002282  81.6157 278.5235 13.21827117184023","mean_motion":13.21827117,"eccentricity":0.0002282,"inclination_deg":87.9285,"raan_deg":225.1665,"arg_perigee_deg":81.6157,"mean_anomaly_deg":278.5235,"bstar":3.8109e-6,"rev_number":18402,"period_min":108.94011641009,"perigee_km":1176.0248584579,"apogee_km":1179.4733648793,"semimajor_km":7555.8861116686,"source":"CELESTRAK","updated_at":"2026-09-20T09:00:44.723298Z"}}